| time (UTC) | temp F | wind direction | speed MPH | gust MPH | rain 1hr in | rain 24hr in | rain mn in | humidity % | barometer mb |
| 20260503011401 | 0 | 217 | 0.0 | 1.0 | 0.00 | 0.01 | 0.01 | 1023.1 | |
| 20260503010857 | 0 | 235 | 0.0 | 1.0 | 0.00 | 0.01 | 0.01 | 1023.1 | |
| 20260503010354 | 0 | 217 | 0.0 | 2.0 | 0.00 | 0.01 | 0.01 | 1022.9 | |
| 20260503005851 | 0 | 225 | 0.0 | 1.0 | 0.00 | 0.01 | 0.01 | 1023.1 | |
| 20260503005349 | 0 | 129 | 0.0 | 1.0 | 0.00 | 0.01 | 0.01 | 1023.0 | |
| 20260503004844 | 0 | 255 | 0.0 | 2.0 | 0.00 | 0.01 | 0.01 | 1023.1 | |
| 20260503004342 | 0 | 233 | 0.0 | 2.0 | 0.00 | 0.01 | 0.01 | 1022.7 | |
| 20260503003840 | 0 | 124 | 0.0 | 1.0 | 0.00 | 0.01 | 0.01 | 1022.9 | |
| 20260503003336 | 0 | 160 | 0.0 | 2.0 | 0.00 | 0.01 | 0.01 | 1022.9 | |
| 20260503002833 | 0 | 117 | 0.0 | 2.0 | 0.00 | 0.01 | 0.01 | 1022.7 | |
| 20260503002331 | 0 | 195 | 0.0 | 2.0 | 0.00 | 0.01 | 0.01 | 1022.8 | |
| 20260503001827 | 0 | 142 | 0.0 | 2.0 | 0.00 | 0.01 | 0.01 | 1022.9 | |
| 20260503001323 | 0 | 129 | 0.0 | 1.0 | 0.00 | 0.01 | 0.01 | 1022.8 | |
| 20260503000821 | 0 | 100 | 1.0 | 3.0 | 0.00 | 0.01 | 0.01 | 1022.9 | |
| 20260503000319 | 0 | 129 | 0.0 | 1.0 | 0.00 | 0.01 | 0.01 | 1022.7 | |
| 20260502235815 | 0 | 197 | 0.0 | 2.0 | 0.00 | 0.01 | 0.01 | 1022.7 | |
| 20260502235312 | 0 | 170 | 3.0 | 3.0 | 0.00 | 0.01 | 0.01 | 1022.6 | |
| 20260502234809 | 0 | 117 | 0.0 | 2.0 | 0.00 | 0.01 | 0.01 | 1022.8 | |
| 20260502234306 | 0 | 142 | 0.0 | 3.0 | 0.00 | 0.01 | 0.01 | 1022.6 | |
| 20260502233802 | 0 | 279 | 0.0 | 2.0 | 0.00 | 0.01 | 0.01 | 1022.6 | |
| 20260502233259 | 0 | 321 | 0.0 | 3.0 | 0.00 | 0.01 | 0.01 | 1022.6 | |
| 20260502232755 | 0 | 313 | 0.0 | 3.0 | 0.00 | 0.01 | 0.01 | 1022.6 | |
| 20260502232252 | 0 | 18 | 3.0 | 4.0 | 0.00 | 0.01 | 0.01 | 1022.6 | |
| 20260502231748 | 0 | 299 | 0.0 | 2.0 | 0.00 | 0.01 | 0.01 | 1022.6 | |
| 20260502231246 | 0 | 74 | 3.0 | 4.0 | 0.00 | 0.01 | 0.01 | 1022.6 | |
| 20260502230745 | 0 | 302 | 2.0 | 3.0 | 0.00 | 0.01 | 0.01 | 1022.6 | |
| 20260502230243 | 0 | 292 | 3.0 | 6.0 | 0.00 | 0.01 | 0.01 | 1022.4 | |
| 20260502225739 | 0 | 312 | 2.0 | 3.0 | 0.00 | 0.01 | 0.01 | 1022.5 | |
| 20260502225236 | 0 | 37 | 0.0 | 1.0 | 0.00 | 0.01 | 0.01 | 1022.5 | |
| 20260502224732 | 0 | 143 | 0.0 | 3.0 | 0.00 | 0.01 | 0.01 | 1022.4 | |
| 20260502224229 | 0 | 321 | 2.0 | 3.0 | 0.00 | 0.01 | 0.01 | 1022.5 | |
| 20260502223726 | 0 | 176 | 1.0 | 2.0 | 0.00 | 0.01 | 0.01 | 1022.7 | |
| 20260502223224 | 0 | 54 | 1.0 | 4.0 | 0.00 | 0.01 | 0.01 | 1022.6 | |
| 20260502222722 | 0 | 114 | 2.0 | 3.0 | 0.00 | 0.01 | 0.01 | 1022.7 | |
| 20260502222218 | 0 | 148 | 0.0 | 2.0 | 0.00 | 0.01 | 0.01 | 1022.7 | |
| 20260502221714 | 0 | 145 | 3.0 | 3.0 | 0.00 | 0.01 | 0.01 | 1022.8 | |
| 20260502221211 | 0 | 316 | 2.0 | 2.0 | 0.00 | 0.01 | 0.01 | 1022.7 | |
| 20260502220707 | 0 | 241 | 1.0 | 2.0 | 0.00 | 0.01 | 0.01 | 1022.8 | |
| 20260502220203 | 0 | 186 | 2.0 | 3.0 | 0.00 | 0.01 | 0.01 | 1022.7 | |
| 20260502215701 | 0 | 340 | 1.0 | 2.0 | 0.00 | 0.01 | 0.01 | 1022.8 | |
| 20260502215157 | 0 | 0 | 1.0 | 3.0 | 0.00 | 0.01 | 0.01 | 1022.8 | |
| 20260502214655 | 0 | 335 | 3.0 | 5.0 | 0.00 | 0.01 | 0.01 | 1023.0 | |
| 20260502214152 | 0 | 295 | 1.0 | 4.0 | 0.00 | 0.01 | 0.01 | 1022.9 | |
| 20260502213649 | 0 | 295 | 1.0 | 4.0 | 0.00 | 0.01 | 0.01 | 1023.0 | |
| 20260502213146 | 0 | 295 | 1.0 | 4.0 | 0.00 | 0.01 | 0.01 | 1023.2 | |
| 20260502212645 | 0 | 344 | 1.0 | 2.0 | 0.00 | 0.01 | 0.01 | 1023.1 | |
| 20260502212143 | 0 | 230 | 1.0 | 4.0 | 0.00 | 0.01 | 0.01 | 1023.3 | |
| 20260502211638 | 0 | 339 | 2.0 | 3.0 | 0.00 | 0.01 | 0.01 | 1023.2 | |
| 20260502211135 | 0 | 84 | 3.0 | 5.0 | 0.00 | 0.01 | 0.01 | 1023.4 | |
| 20260502210633 | 0 | 354 | 1.0 | 3.0 | 0.00 | 0.01 | 0.01 | 1023.6 | |
| 20260502210130 | 0 | 56 | 3.0 | 11.0 | 0.00 | 0.01 | 0.01 | 1023.7 | |
| 20260502205626 | 0 | 124 | 1.0 | 7.0 | 0.00 | 0.01 | 0.01 | 1023.8 | |
| 20260502205123 | 0 | 340 | 2.0 | 3.0 | 0.00 | 0.01 | 0.01 | 1023.9 | |
| 20260502204620 | 0 | 19 | 0.0 | 3.0 | 0.00 | 0.01 | 0.01 | 1024.1 | |
| 20260502204118 | 0 | 150 | 0.0 | 1.0 | 0.00 | 0.01 | 0.01 | 1024.0 | |
| 20260502203615 | 0 | 25 | 3.0 | 4.0 | 0.00 | 0.01 | 0.01 | 1024.2 | |
| 20260502203112 | 0 | 128 | 4.0 | 7.0 | 0.00 | 0.01 | 0.01 | 1023.9 | |
| 20260502202608 | 0 | 59 | 3.0 | 5.0 | 0.00 | 0.01 | 0.01 | 1024.1 | |
| 20260502202106 | 0 | 49 | 0.0 | 3.0 | 0.00 | 0.01 | 0.01 | 1024.1 | |
| 20260502201602 | 0 | 294 | 1.0 | 2.0 | 0.00 | 0.01 | 0.01 | 1024.2 | |
| 20260502201058 | 0 | 294 | 1.0 | 2.0 | 0.00 | 0.01 | 0.01 | 1024.1 | |
| 20260502200554 | 0 | 294 | 1.0 | 2.0 | 0.00 | 0.01 | 0.01 | 1024.3 | |
| 20260502200052 | 0 | 293 | 3.0 | 9.0 | 0.00 | 0.01 | 0.01 | 1024.3 | |
| 20260502195550 | 0 | 306 | 3.0 | 5.0 | 0.00 | 0.01 | 0.01 | 1024.2 | |
| 20260502195045 | 0 | 317 | 4.0 | 6.0 | 0.00 | 0.01 | 0.01 | 1024.2 | |
| 20260502194542 | 0 | 42 | 1.0 | 5.0 | 0.00 | 0.01 | 0.01 | 1024.3 | |
| 20260502194038 | 0 | 316 | 3.0 | 4.0 | 0.00 | 0.01 | 0.01 | 1024.2 | |
| 20260502193536 | 0 | 300 | 3.0 | 5.0 | 0.00 | 0.01 | 0.01 | 1024.3 | |
| 20260502193032 | 0 | 313 | 2.0 | 7.0 | 0.00 | 0.01 | 0.01 | 1024.4 | |
| 20260502192528 | 0 | 304 | 2.0 | 4.0 | 0.00 | 0.01 | 0.01 | 1024.3 | |
| 20260502192026 | 0 | 343 | 3.0 | 5.0 | 0.00 | 0.01 | 0.01 | 1024.4 | |
| 20260502191523 | 0 | 36 | 0.0 | 2.0 | 0.00 | 0.01 | 0.01 | 1024.4 | |
| 20260502191020 | 0 | 179 | 2.0 | 4.0 | 0.00 | 0.01 | 0.01 | 1024.4 | |
| 20260502190518 | 0 | 313 | 2.0 | 4.0 | 0.00 | 0.01 | 0.01 | 1024.4 | |
| 20260502190015 | 0 | 243 | 2.0 | 4.0 | 0.00 | 0.01 | 0.01 | 1024.3 | |
| 20260502185509 | 0 | 319 | 4.0 | 5.0 | 0.00 | 0.01 | 0.01 | 1024.6 | |
| 20260502185007 | 0 | 273 | 3.0 | 6.0 | 0.00 | 0.01 | 0.01 | 1024.6 | |
| 20260502184502 | 0 | 7 | 2.0 | 4.0 | 0.00 | 0.01 | 0.01 | 1024.5 | |
| 20260502183959 | 0 | 354 | 1.0 | 2.0 | 0.00 | 0.01 | 0.01 | 1024.6 | |
| 20260502183455 | 0 | 89 | 2.0 | 4.0 | 0.00 | 0.01 | 0.01 | 1024.7 | |
| 20260502182950 | 0 | 161 | 3.0 | 3.0 | 0.00 | 0.01 | 0.01 | 1024.7 | |
| 20260502182446 | 0 | 341 | 4.0 | 5.0 | 0.00 | 0.01 | 0.01 | 1024.8 | |
| 20260502181942 | 0 | 132 | 1.0 | 3.0 | 0.00 | 0.01 | 0.01 | 1025.1 | |
| 20260502181440 | 0 | 292 | 2.0 | 3.0 | 0.00 | 0.01 | 0.01 | 1025.3 | |
| 20260502180939 | 0 | 246 | 0.0 | 3.0 | 0.00 | 0.01 | 0.01 | 1025.3 | |
| 20260502180436 | 0 | 352 | 2.0 | 3.0 | 0.00 | 0.01 | 0.01 | 1025.4 | |
| 20260502170354 | 0 | 323 | 2.0 | 3.0 | 0.00 | 0.01 | 0.01 | 1026.2 | |
| 20260502164342 | 0 | 214 | 0.0 | 2.0 | 0.00 | 0.01 | 0.01 | 1026.5 | |
| 20260502163838 | 0 | 214 | 0.0 | 2.0 | 0.00 | 0.01 | 0.01 | 1026.5 | |
| 20260502163334 | 0 | 280 | 3.0 | 6.0 | 0.00 | 0.01 | 0.01 | 1026.5 | |
| 20260502162832 | 0 | 138 | 1.0 | 7.0 | 0.00 | 0.01 | 0.01 | 1026.5 | |
| 20260502162328 | 0 | 8 | 2.0 | 5.0 | 0.00 | 0.01 | 0.01 | 1026.6 | |
| 20260502161826 | 0 | 0 | 2.0 | 5.0 | 0.00 | 0.01 | 0.01 | 1026.7 | |
| 20260502161321 | 0 | 13 | 3.0 | 4.0 | 0.00 | 0.01 | 0.01 | 1026.6 | |
| 20260502160820 | 0 | 14 | 0.0 | 3.0 | 0.00 | 0.01 | 0.01 | 1026.7 | |
| 20260502160318 | 0 | 103 | 0.0 | 3.0 | 0.00 | 0.01 | 0.01 | 1026.7 | |
| 20260502152247 | 0 | 89 | 0.0 | 5.0 | 0.00 | 0.01 | 0.01 | 1026.7 | |
| 20260502151744 | 0 | 269 | 0.0 | 2.0 | 0.00 | 0.01 | 0.01 | 1026.7 | |
| 20260502151241 | 0 | 13 | 0.0 | 3.0 | 0.00 | 0.01 | 0.01 | 1026.6 | |
| 20260502150739 | 0 | 83 | 2.0 | 5.0 | 0.00 | 0.01 | 0.01 | 1026.6 | |
| 20260502150236 | 0 | 39 | 1.0 | 3.0 | 0.00 | 0.01 | 0.01 | 1026.7 | |
| 20260502130624 | 0 | 0.0 | 0.0 | 0.00 | 0.00 | 0.00 | 1025.5 | ||
| 20260502130122 | 0 | 0.0 | 0.0 | 0.00 | 0.00 | 0.00 | 1025.5 | ||
| 20260502123608 | 0 | 0.0 | 0.0 | 0.00 | 0.00 | 0.00 | 1025.0 | ||
| 20260502123104 | 0 | 0.0 | 0.0 | 0.00 | 0.00 | 0.00 | 1025.1 | ||
| 20260502122600 | 0 | 0.0 | 0.0 | 0.00 | 0.00 | 0.00 | 1025.1 | ||
| 20260502122057 | 0 | 0.0 | 0.0 | 0.00 | 0.00 | 0.00 | 1024.9 | ||
| 20260502121555 | 0 | 0.0 | 0.0 | 0.00 | 0.00 | 0.00 | 1024.8 | ||
| 20260502121053 | 0 | 0.0 | 0.0 | 0.00 | 0.00 | 0.00 | 1024.9 | ||
| 20260502120548 | 0 | 0.0 | 0.0 | 0.00 | 0.00 | 0.00 | 1024.5 | ||
| 20260502115544 | 0 | 0.0 | 0.0 | 0.00 | 0.00 | 0.00 | 1024.5 | ||
| 20260502115039 | 0 | 0.0 | 0.0 | 0.00 | 0.00 | 0.00 | 1024.3 | ||
| 20260502114536 | 0 | 0.0 | 0.0 | 0.00 | 0.00 | 0.00 | 1024.1 | ||
| 20260502114033 | 0 | 0.0 | 0.0 | 0.00 | 0.00 | 0.00 | 1024.1 | ||
| 20260502113531 | 0 | 0.0 | 0.0 | 0.00 | 0.00 | 0.00 | 1024.1 | ||
| 20260502113029 | 0 | 0.0 | 0.0 | 0.00 | 0.00 | 0.00 | 1024.1 | ||
| 20260502112527 | 0 | 0.0 | 0.0 | 0.00 | 0.00 | 0.00 | 1024.1 | ||
| 20260502112024 | 0 | 0.0 | 0.0 | 0.00 | 0.00 | 0.00 | 1024.1 | ||
| 20260502111521 | 0 | 0.0 | 0.0 | 0.00 | 0.00 | 0.00 | 1024.0 | ||
| 20260502111019 | 0 | 0.0 | 0.0 | 0.00 | 0.00 | 0.00 | 1023.8 | ||
| 20260502110516 | 0 | 0.0 | 0.0 | 0.00 | 0.00 | 0.00 | 1023.7 | ||
| 20260502110014 | 0 | 0.0 | 0.0 | 0.00 | 0.00 | 0.00 | 1023.7 | ||
| 20260502105510 | 0 | 0.0 | 0.0 | 0.00 | 0.00 | 0.00 | 1023.5 | ||
| 20260502105008 | 0 | 0.0 | 0.0 | 0.00 | 0.00 | 0.00 | 1023.2 | ||
| 20260502104505 | 0 | 0.0 | 0.0 | 0.00 | 0.00 | 0.00 | 1023.2 | ||
| 20260502104003 | 0 | 0.0 | 0.0 | 0.00 | 0.00 | 0.00 | 1023.0 | ||
| 20260502103500 | 0 | 0.0 | 0.0 | 0.00 | 0.00 | 0.00 | 1022.9 | ||
| 20260502102956 | 0 | 0.0 | 0.0 | 0.00 | 0.00 | 0.00 | 1022.8 | ||
| 20260502102454 | 0 | 0.0 | 0.0 | 0.00 | 0.00 | 0.00 | 1022.6 | ||
| 20260502101950 | 0 | 0.0 | 0.0 | 0.00 | 0.00 | 0.00 | 1022.7 | ||
| 20260502101449 | 0 | 0.0 | 0.0 | 0.00 | 0.00 | 0.00 | 1022.7 | ||
| 20260502100947 | 0 | 0.0 | 0.0 | 0.00 | 0.00 | 0.00 | 1022.7 | ||
| 20260502100445 | 0 | 0.0 | 0.0 | 0.00 | 0.00 | 0.00 | 1022.6 | ||
| 20260502091420 | 0 | 0.0 | 0.0 | 0.00 | 0.00 | 0.00 | 1022.6 | ||
| 20260502090917 | 0 | 0.0 | 0.0 | 0.00 | 0.00 | 0.00 | 1022.5 | ||
| 20260502090414 | 0 | 0.0 | 0.0 | 0.00 | 0.00 | 0.00 | 1022.3 | ||
| 20260502071309 | 0 | 0.0 | 0.0 | 0.00 | 0.00 | 0.00 | 1022.3 | ||
| 20260502070807 | 0 | 0.0 | 0.0 | 0.00 | 0.00 | 0.00 | 1022.3 | ||
| 20260502070304 | 0 | 0.0 | 0.0 | 0.00 | 0.00 | 0.00 | 1022.2 | ||
| 20260502065803 | 0 | 0.0 | 0.0 | 0.00 | 0.00 | 0.00 | 1022.5 | ||
| 20260502065300 | 0 | 0.0 | 0.0 | 0.00 | 0.00 | 0.00 | 1022.4 | ||
| 20260502064758 | 0 | 0.0 | 0.0 | 0.00 | 0.00 | 0.00 | 1022.3 | ||
| 20260502064256 | 0 | 0.0 | 0.0 | 0.00 | 0.00 | 0.00 | 1022.1 | ||
| 20260502063753 | 0 | 0.0 | 0.0 | 0.00 | 0.00 | 0.00 | 1022.1 | ||
| 20260502063251 | 0 | 0.0 | 0.0 | 0.00 | 0.00 | 0.00 | 1022.2 | ||
| 20260502062748 | 0 | 0.0 | 0.0 | 0.00 | 0.00 | 0.00 | 1022.2 | ||
| 20260502062245 | 0 | 0.0 | 0.0 | 0.00 | 0.00 | 0.00 | 1022.2 | ||
| 20260502061744 | 0 | 0.0 | 0.0 | 0.00 | 0.00 | 0.00 | 1022.1 | ||
| 20260502061241 | 0 | 0.0 | 0.0 | 0.00 | 0.00 | 0.00 | 1021.9 | ||
| 20260502060736 | 0 | 0.0 | 0.0 | 0.00 | 0.00 | 0.00 | 1021.8 | ||
| 20260502060232 | 0 | 0.0 | 0.0 | 0.00 | 0.00 | 0.00 | 1022.1 | ||
| 20260502055731 | 0 | 0.0 | 0.0 | 0.00 | 0.00 | 0.00 | 1022.2 | ||
| 20260502055228 | 51 | 50 | 0.0 | 0.0 | 0.00 | 0.00 | 0.00 | 99 | 1022.2 |
| 20260502054727 | 51 | 50 | 0.0 | 0.0 | 0.00 | 0.00 | 0.00 | 99 | 1022.2 |
| 20260502054224 | 51 | 50 | 0.0 | 0.0 | 0.00 | 0.00 | 0.00 | 99 | 1022.2 |
| 20260502053721 | 51 | 50 | 0.0 | 0.0 | 0.00 | 0.00 | 0.00 | 99 | 1022.5 |
| 20260502053218 | 51 | 50 | 0.0 | 0.0 | 0.00 | 0.00 | 0.00 | 99 | 1022.2 |
| 20260502052716 | 51 | 50 | 0.0 | 0.0 | 0.00 | 0.00 | 0.00 | 99 | 1022.1 |
| 20260502052214 | 51 | 50 | 0.0 | 0.0 | 0.00 | 0.00 | 0.00 | 99 | 1022.1 |
| 20260502051712 | 51 | 50 | 0.0 | 0.0 | 0.00 | 0.00 | 0.00 | 99 | 1022.1 |
| 20260502051210 | 51 | 50 | 0.0 | 0.0 | 0.00 | 0.00 | 0.00 | 99 | 1021.9 |
| 20260502050706 | 51 | 50 | 0.0 | 0.0 | 0.00 | 0.00 | 0.00 | 99 | 1021.8 |
| 20260502050202 | 51 | 50 | 0.0 | 0.0 | 0.00 | 0.00 | 0.00 | 99 | 1021.8 |
| 20260502045659 | 52 | 50 | 0.0 | 0.0 | 0.00 | 1.60 | 1.60 | 99 | 1021.9 |
| 20260502045157 | 52 | 50 | 0.0 | 0.0 | 0.00 | 1.60 | 1.60 | 99 | 1021.7 |
| 20260502044653 | 52 | 50 | 0.0 | 0.0 | 0.00 | 1.60 | 1.60 | 99 | 1021.8 |
| 20260502044149 | 52 | 50 | 0.0 | 0.0 | 0.00 | 1.60 | 1.60 | 99 | 1022.1 |
| 20260502043647 | 52 | 50 | 0.0 | 0.0 | 0.00 | 1.60 | 1.60 | 99 | 1021.8 |
| 20260502043145 | 52 | 50 | 0.0 | 0.0 | 0.00 | 1.60 | 1.60 | 99 | 1021.7 |
| 20260502042644 | 53 | 41 | 0.0 | 0.0 | 0.00 | 1.60 | 1.60 | 99 | 1021.6 |
| 20260502042141 | 53 | 67 | 0.0 | 0.0 | 0.00 | 1.60 | 1.60 | 99 | 1021.6 |
| 20260502041639 | 53 | 67 | 0.0 | 0.0 | 0.00 | 1.60 | 1.60 | 99 | 1021.6 |
| 20260502041136 | 53 | 67 | 0.0 | 0.0 | 0.00 | 1.60 | 1.60 | 99 | 1021.8 |
| 20260502040632 | 53 | 67 | 0.0 | 0.0 | 0.00 | 1.60 | 1.60 | 99 | 1021.7 |
| 20260502040130 | 53 | 67 | 0.0 | 0.0 | 0.00 | 1.60 | 1.60 | 99 | 1021.6 |
| 20260502035626 | 53 | 67 | 0.0 | 0.0 | 0.00 | 1.60 | 1.60 | 99 | 1021.5 |
| 20260502035123 | 53 | 67 | 0.0 | 0.0 | 0.00 | 1.60 | 1.60 | 99 | 1021.8 |
| 20260502034621 | 53 | 67 | 0.0 | 0.0 | 0.00 | 1.60 | 1.60 | 99 | 1021.7 |
| 20260502034119 | 53 | 67 | 0.0 | 0.0 | 0.00 | 1.60 | 1.60 | 99 | 1021.7 |
| 20260502033616 | 53 | 67 | 0.0 | 0.0 | 0.00 | 1.60 | 1.60 | 99 | 1021.6 |
| 20260502033114 | 53 | 67 | 0.0 | 0.0 | 0.00 | 1.60 | 1.60 | 99 | 1021.7 |
| 20260502032609 | 53 | 67 | 0.0 | 0.0 | 0.00 | 1.60 | 1.60 | 99 | 1021.6 |
| 20260502032106 | 53 | 67 | 0.0 | 0.0 | 0.00 | 1.60 | 1.60 | 99 | 1021.7 |
| 20260502031604 | 53 | 66 | 0.0 | 0.0 | 0.00 | 1.60 | 1.60 | 99 | 1021.7 |
| 20260502031102 | 53 | 75 | 0.0 | 1.0 | 0.00 | 1.60 | 1.60 | 99 | 1021.5 |
| 20260502030601 | 53 | 56 | 0.0 | 0.0 | 0.00 | 1.60 | 1.60 | 99 | 1021.5 |
| 20260502030058 | 53 | 55 | 0.0 | 0.0 | 0.00 | 1.60 | 1.60 | 99 | 1021.5 |
| 20260502025555 | 53 | 49 | 0.0 | 0.0 | 0.00 | 1.60 | 1.60 | 99 | 1021.4 |
| 20260502025053 | 53 | 49 | 0.0 | 0.0 | 0.00 | 1.60 | 1.60 | 99 | 1021.2 |
| 20260502024550 | 53 | 49 | 0.0 | 0.0 | 0.00 | 1.60 | 1.60 | 99 | 1021.1 |
| 20260502024048 | 53 | 63 | 0.0 | 0.0 | 0.00 | 1.60 | 1.60 | 99 | 1021.2 |
| 20260502023546 | 53 | 68 | 0.0 | 0.0 | 0.00 | 1.60 | 1.60 | 99 | 1021.0 |
| 20260502023043 | 53 | 68 | 0.0 | 0.0 | 0.00 | 1.60 | 1.60 | 99 | 1021.2 |
| 20260502022539 | 53 | 68 | 0.0 | 0.0 | 0.00 | 1.60 | 1.60 | 99 | 1021.0 |
| 20260502022037 | 53 | 68 | 0.0 | 0.0 | 0.00 | 1.60 | 1.60 | 99 | 1020.9 |
| 20260502021534 | 53 | 72 | 0.0 | 0.0 | 0.00 | 1.60 | 1.60 | 99 | 1020.8 |
| 20260502021031 | 53 | 33 | 0.0 | 0.0 | 0.00 | 1.60 | 1.60 | 99 | 1020.7 |
| 20260502020529 | 53 | 33 | 0.0 | 0.0 | 0.00 | 1.60 | 1.60 | 99 | 1020.5 |
| 20260502020026 | 53 | 33 | 0.0 | 0.0 | 0.00 | 1.60 | 1.60 | 99 | 1020.5 |
| 20260502015523 | 53 | 33 | 0.0 | 0.0 | 0.00 | 1.60 | 1.60 | 99 | 1020.1 |
| 20260502015019 | 53 | 33 | 0.0 | 0.0 | 0.00 | 1.60 | 1.60 | 99 | 1020.1 |
| 20260502014517 | 53 | 14 | 0.0 | 0.0 | 0.00 | 1.60 | 1.60 | 99 | 1020.0 |
| 20260502014014 | 53 | 41 | 0.0 | 0.0 | 0.00 | 1.60 | 1.60 | 99 | 1020.0 |
| 20260502013509 | 53 | 41 | 0.0 | 0.0 | 0.00 | 1.60 | 1.60 | 99 | 1019.9 |
| 20260502013005 | 53 | 51 | 0.0 | 0.0 | 0.00 | 1.60 | 1.60 | 99 | 1019.9 |
| 20260502012503 | 0 | 94 | 2.0 | 5.0 | 0.00 | 1.60 | 1.60 | 1019.8 | |
| 20260502012001 | 0 | 94 | 2.0 | 5.0 | 0.00 | 1.60 | 1.60 | 1019.8 |